Satellite: RS-38
Catalog number: 35869
Epoch time: 10238.68086089
Element set: 609
Inclination: 098.7515 deg
RA of node: 291.9912 deg
Eccentricity: 0.0004740
Arg of perigee: 152.8299 deg
Mean anomaly: 207.3085 deg
Mean motion: 14.21987201 rev/day
Decay rate: 1.77e-06 rev/day^2
Epoch rev: 4874
Checksum: 343
/EX
More information about the Keps
mailing list